User: anonymous
Location: Fort Frances
(48.6170°N, 93.4170°W)
Time: 04:23:12
(UTC-05:00)
Language:

Iridium 53 - Orbit

View from above orbital plane
View from above orbital plane
View from above satellite
View from above satellite

Ground track
Ground track

The orbit data is extracted from the following two-line orbital elements,

1 25173U 98010E   14107.46778823  .00000439  00000-0  14982-3 0  7478
2 25173 086.3937 113.8695 0002302 102.6550 008.2836 14.34213861845978
Epoch (UTC): 17 April 2014 11:13:36
Eccentricity: 0.0002302
inclination: 86.3937°
perigee height: 776 km
apogee height: 779 km
right ascension of ascending node: 113.8695°
argument of perigee: 102.6550°
revolutions per day: 14.34213861
mean anomaly at epoch: 8.2836°
orbit number at epoch: 84597

The dashed part of the orbit path shows where the satellite is in the earth's shadow,  

DLR